| time (UTC) | temp F | wind direction | speed MPH | gust MPH | rain 1hr in | rain 24hr in | rain mn in | humidity % | barometer mb |
| 20260904140051 | 54 | 177 | 19.0 | 28.0 | 0.00 | 0.00 | 0.00 | 56 | 1002.6 |
| 20260904134553 | 53 | 178 | 19.0 | 24.0 | 0.00 | 0.00 | 0.00 | 57 | 1002.3 |
| 20260904133051 | 53 | 345 | 12.0 | 16.0 | 0.00 | 0.00 | 0.00 | 55 | 1001.7 |
| 20260904131602 | 52 | 345 | 13.0 | 17.0 | 0.00 | 0.00 | 0.00 | 58 | 1001.4 |
| 20260904130046 | 52 | 273 | 11.0 | 16.0 | 0.00 | 0.00 | 0.00 | 56 | 1001.1 |
| 20260904124545 | 52 | 345 | 1.0 | 8.0 | 0.00 | 0.00 | 0.00 | 56 | 1001.1 |
| 20260904123044 | 51 | 268 | 6.0 | 8.0 | 0.00 | 0.00 | 0.00 | 57 | 1000.8 |
| 20260904121540 | 53 | 253 | 2.0 | 12.0 | 0.00 | 0.00 | 0.00 | 54 | 1000.9 |
| 20260904120048 | 53 | 345 | 5.0 | 13.0 | 0.00 | 0.00 | 0.00 | 54 | 1001.1 |
| 20260904114539 | 53 | 281 | 9.0 | 11.0 | 0.00 | 0.00 | 0.00 | 54 | 1001.2 |
| 20260904113039 | 53 | 301 | 6.0 | 10.0 | 0.00 | 0.00 | 0.00 | 54 | 1001.1 |
| 20260904111542 | 53 | 282 | 7.0 | 10.0 | 0.00 | 0.00 | 0.00 | 54 | 1001.1 |
| 20260904110037 | 53 | 312 | 5.0 | 12.0 | 0.00 | 0.00 | 0.00 | 56 | 1001.2 |
| 20260904104534 | 52 | 281 | 6.0 | 8.0 | 0.00 | 0.00 | 0.00 | 58 | 1001.3 |
| 20260904103045 | 53 | 294 | 3.0 | 5.0 | 0.00 | 0.00 | 0.00 | 54 | 1001.5 |
| 20260904101530 | 54 | 298 | 7.0 | 9.0 | 0.00 | 0.00 | 0.00 | 55 | 1001.5 |
| 20260904100030 | 54 | 345 | 4.0 | 9.0 | 0.00 | 0.00 | 0.00 | 53 | 1001.5 |
| 20260904094529 | 54 | 298 | 5.0 | 10.0 | 0.00 | 0.00 | 0.00 | 54 | 1001.5 |
| 20260904093025 | 53 | 345 | 5.0 | 9.0 | 0.00 | 0.00 | 0.00 | 55 | 1001.8 |
| 20260904091524 | 54 | 345 | 5.0 | 8.0 | 0.00 | 0.00 | 0.00 | 51 | 1002.0 |
| 20260904090018 | 55 | 345 | 4.0 | 5.0 | 0.00 | 0.00 | 0.00 | 49 | 1002.2 |
| 20260904084517 | 55 | 278 | 2.0 | 3.0 | 0.00 | 0.00 | 0.00 | 50 | 1002.3 |
| 20260904083015 | 55 | 276 | 3.0 | 7.0 | 0.00 | 0.00 | 0.00 | 51 | 1002.4 |
| 20260904081513 | 56 | 279 | 3.0 | 7.0 | 0.00 | 0.00 | 0.00 | 51 | 1002.5 |
| 20260904080012 | 57 | 316 | 3.0 | 4.0 | 0.00 | 0.00 | 0.00 | 49 | 1002.5 |
| 20260904074522 | 57 | 297 | 2.0 | 4.0 | 0.00 | 0.00 | 0.00 | 49 | 1002.8 |
| 20260904073016 | 56 | 298 | 2.0 | 6.0 | 0.00 | 0.00 | 0.00 | 52 | 1002.9 |
| 20260904071505 | 57 | 325 | 3.0 | 6.0 | 0.00 | 0.00 | 0.00 | 50 | 1003.0 |
| 20260904070004 | 57 | 177 | 3.0 | 6.0 | 0.00 | 0.00 | 0.00 | 51 | 1003.3 |
| 20260904064502 | 57 | 177 | 4.0 | 7.0 | 0.00 | 0.00 | 0.00 | 52 | 1003.3 |
| 20260904063104 | 58 | 193 | 2.0 | 5.0 | 0.00 | 0.00 | 0.00 | 50 | 1003.4 |
| 20260904061556 | 59 | 190 | 2.0 | 5.0 | 0.00 | 0.00 | 0.00 | 49 | 1003.6 |
| 20260904060052 | 60 | 198 | 4.0 | 6.0 | 0.00 | 0.00 | 0.00 | 48 | 1003.8 |
| 20260904054550 | 60 | 191 | 2.0 | 4.0 | 0.00 | 0.00 | 0.00 | 47 | 1004.0 |
| 20260904053048 | 60 | 151 | 1.0 | 4.0 | 0.00 | 0.00 | 0.00 | 46 | 1004.2 |
| 20260904051548 | 59 | 246 | 3.0 | 5.0 | 0.00 | 0.00 | 0.00 | 48 | 1004.2 |
| 20260904050049 | 59 | 291 | 1.0 | 4.0 | 0.00 | 0.00 | 0.00 | 48 | 1004.4 |
| 20260904044549 | 59 | 293 | 2.0 | 4.0 | 0.00 | 0.00 | 0.00 | 48 | 1004.4 |
| 20260904043050 | 59 | 295 | 2.0 | 4.0 | 0.00 | 0.00 | 0.00 | 49 | 1004.6 |
| 20260904041543 | 61 | 297 | 2.0 | 4.0 | 0.00 | 0.00 | 0.00 | 46 | 1004.7 |
| 20260904040055 | 61 | 89 | 0.0 | 4.0 | 0.00 | 0.00 | 0.00 | 44 | 1004.9 |
| 20260904034543 | 62 | 104 | 1.0 | 4.0 | 0.00 | 0.00 | 0.00 | 44 | 1005.1 |
| 20260904033041 | 63 | 149 | 0.0 | 2.0 | 0.00 | 0.00 | 0.00 | 41 | 1005.3 |
| 20260904031541 | 63 | 196 | 2.0 | 9.0 | 0.00 | 0.00 | 0.00 | 40 | 1005.6 |
| 20260904030040 | 64 | 135 | 6.0 | 14.0 | 0.00 | 0.00 | 0.00 | 40 | 1005.6 |
| 20260904024542 | 64 | 154 | 12.0 | 17.0 | 0.00 | 0.00 | 0.00 | 39 | 1005.7 |
| 20260904023047 | 65 | 118 | 8.0 | 24.0 | 0.00 | 0.00 | 0.00 | 37 | 1005.7 |
| 20260904021541 | 64 | 106 | 4.0 | 16.0 | 0.00 | 0.00 | 0.00 | 40 | 1005.5 |
| 20260904020039 | 64 | 88 | 2.0 | 11.0 | 0.00 | 0.00 | 0.00 | 40 | 1005.4 |
| 20260904014602 | 65 | 110 | 2.0 | 13.0 | 0.00 | 0.00 | 0.00 | 37 | 1005.3 |
| 20260904013041 | 66 | 111 | 6.0 | 15.0 | 0.00 | 0.00 | 0.00 | 35 | 1005.2 |
| 20260904011537 | 66 | 109 | 4.0 | 13.0 | 0.00 | 0.00 | 0.00 | 35 | 1005.3 |
| 20260904010038 | 67 | 131 | 7.0 | 17.0 | 0.00 | 0.00 | 0.00 | 34 | 1005.2 |
| 20260904004538 | 67 | 122 | 7.0 | 16.0 | 0.00 | 0.00 | 0.00 | 34 | 1005.2 |
| 20260904003035 | 67 | 121 | 8.0 | 17.0 | 0.00 | 0.00 | 0.00 | 34 | 1005.2 |
| 20260904001535 | 67 | 102 | 7.0 | 23.0 | 0.00 | 0.00 | 0.00 | 34 | 1005.0 |
| 20260904000034 | 67 | 113 | 9.0 | 19.0 | 0.00 | 0.00 | 0.00 | 35 | 1005.1 |
| 20260903234534 | 67 | 171 | 7.0 | 18.0 | 0.00 | 0.00 | 0.00 | 34 | 1005.1 |
| 20260903233036 | 69 | 147 | 8.0 | 20.0 | 0.00 | 0.00 | 0.00 | 33 | 1005.2 |
| 20260903231533 | 69 | 173 | 9.0 | 23.0 | 0.00 | 0.00 | 0.00 | 34 | 1005.3 |
| 20260903230031 | 68 | 187 | 9.0 | 21.0 | 0.00 | 0.00 | 0.00 | 34 | 1005.3 |
| 20260903224530 | 70 | 158 | 10.0 | 21.0 | 0.00 | 0.00 | 0.00 | 33 | 1005.3 |
| 20260903223028 | 68 | 146 | 8.0 | 20.0 | 0.00 | 0.00 | 0.00 | 33 | 1005.5 |
| 20260903221530 | 67 | 139 | 9.0 | 16.0 | 0.00 | 0.00 | 0.00 | 35 | 1005.6 |
| 20260903220027 | 68 | 119 | 6.0 | 21.0 | 0.00 | 0.00 | 0.00 | 33 | 1005.7 |
| 20260903214528 | 67 | 112 | 9.0 | 20.0 | 0.00 | 0.01 | 0.00 | 32 | 1005.8 |
| 20260903213025 | 69 | 205 | 9.0 | 26.0 | 0.00 | 0.01 | 0.00 | 31 | 1005.5 |
| 20260903211523 | 66 | 120 | 10.0 | 22.0 | 0.00 | 0.01 | 0.00 | 33 | 1005.6 |
| 20260903210023 | 66 | 135 | 9.0 | 22.0 | 0.00 | 0.01 | 0.00 | 34 | 1005.8 |
| 20260903204525 | 67 | 161 | 12.0 | 26.0 | 0.00 | 0.01 | 0.00 | 33 | 1005.9 |
| 20260903203020 | 67 | 118 | 7.0 | 17.0 | 0.00 | 0.01 | 0.00 | 32 | 1005.9 |
| 20260903201522 | 67 | 244 | 11.0 | 19.0 | 0.00 | 0.01 | 0.00 | 32 | 1006.0 |
| 20260903200018 | 66 | 188 | 7.0 | 20.0 | 0.00 | 0.01 | 0.00 | 34 | 1006.0 |
| 20260903194516 | 67 | 129 | 7.0 | 23.0 | 0.00 | 0.01 | 0.00 | 34 | 1006.2 |
| 20260903193014 | 66 | 108 | 12.0 | 28.0 | 0.00 | 0.01 | 0.00 | 34 | 1006.2 |
| 20260903191513 | 66 | 181 | 10.0 | 22.0 | 0.00 | 0.01 | 0.00 | 34 | 1006.3 |
| 20260903190012 | 66 | 172 | 12.0 | 17.0 | 0.00 | 0.01 | 0.00 | 33 | 1006.4 |
| 20260903184513 | 67 | 97 | 6.0 | 34.0 | 0.00 | 0.01 | 0.00 | 33 | 1006.5 |
| 20260903183011 | 65 | 128 | 10.0 | 19.0 | 0.00 | 0.01 | 0.00 | 35 | 1006.5 |
| 20260903181508 | 64 | 28 | 9.0 | 21.0 | 0.00 | 0.01 | 0.00 | 35 | 1006.7 |
| 20260903180006 | 64 | 170 | 8.0 | 19.0 | 0.00 | 0.01 | 0.00 | 37 | 1007.1 |
| 20260903174506 | 63 | 161 | 9.0 | 21.0 | 0.00 | 0.01 | 0.00 | 37 | 1007.1 |
| 20260903173003 | 62 | 160 | 9.0 | 19.0 | 0.00 | 0.01 | 0.00 | 38 | 1007.2 |
| 20260903171501 | 61 | 152 | 7.0 | 20.0 | 0.00 | 0.01 | 0.00 | 41 | 1007.0 |
| 20260903164556 | 60 | 124 | 12.0 | 18.0 | 0.00 | 0.01 | 0.00 | 45 | 1007.1 |
| 20260903163052 | 59 | 156 | 8.0 | 13.0 | 0.00 | 0.01 | 0.00 | 48 | 1007.0 |
| 20260903161549 | 56 | 185 | 1.0 | 4.0 | 0.00 | 0.01 | 0.00 | 57 | 1007.1 |
| 20260903160049 | 56 | 146 | 2.0 | 6.0 | 0.00 | 0.01 | 0.00 | 56 | 1007.2 |
| 20260903154548 | 56 | 86 | 2.0 | 7.0 | 0.00 | 0.01 | 0.00 | 56 | 1007.2 |
| 20260903153043 | 54 | 78 | 1.0 | 4.0 | 0.00 | 0.01 | 0.00 | 57 | 1007.3 |
| 20260903151539 | 52 | 119 | 0.0 | 4.0 | 0.00 | 0.01 | 0.00 | 63 | 1007.3 |
| 20260903144540 | 49 | 85 | 1.0 | 7.0 | 0.00 | 0.01 | 0.00 | 74 | 1007.4 |
| 20260903143035 | 50 | 288 | 10.0 | 16.0 | 0.00 | 0.01 | 0.00 | 66 | 1007.5 |
| 20260903141536 | 48 | 303 | 11.0 | 14.0 | 0.00 | 0.01 | 0.00 | 72 | 1007.7 |